Trinity Center, CA

8:51 AM PST on February 09, 2016 (GMT -0800)
Trinity Center

Weather History for KO86 - May, 2013

Change the Weather History Date:

Friday, May 17, 2013

  Actual Average (KMHS) Record (KMHS)
Temperature  
Mean Temperature 55 °F 55 °F  
Max Temperature 71 °F 70 °F 95 °F (2008)
Min Temperature 39 °F 40 °F 29 °F (1927)
Degree Days  
Heating Degree Days 10 11  
Month to date heating degree days 211  
Since 1 July heating degree days 5426  
Cooling Degree Days 0 0  
Month to date cooling degree days 0  
Year to date cooling degree days 0  
Growing Degree Days 5 (Base 50)    
Moisture  
Dew Point 36 °F    
Average Humidity 57    
Maximum Humidity 93    
Minimum Humidity 23    
Precipitation  
Precipitation 0.00 in 0.07 in 1.53 in (1996)
Month to date precipitation 1.22  
Year to date precipitation 24.40  
Sea Level Pressure  
Sea Level Pressure 30.03 in    
Wind  
Wind Speed 6 mph (SSW)    
Max Wind Speed 13 mph    
Max Gust Speed 17 mph    
Visibility 10 miles    
Events      
T = Trace of Precipitation, MM = Missing Value Source: NWS Daily Summary

Daily Weather History Graph

Daily Weather History Graph

Search for Another Location

Airport or City:

Trip Planner

Search our weather history database for the weather conditions in past years. The results will help you decide how hot, cold, wet, or windy it might be!

Date:

Astronomy

May. 17, 2013 Rise Set
Actual Time 5:50 AM PDT 8:24 PM PDT
Civil Twilight 5:19 AM PDT 8:55 PM PDT
Nautical Twilight 4:40 AM PDT 9:35 PM PDT
Astronomical Twilight 3:56 AM PDT 10:19 PM PDT
Moon 12:30 PM PDT (5/17) 1:18 AM PDT (5/17)
Length of Visible Light 15h 36m
Length of Day
14h 33m
Waxing Crescent, 46% of the Moon is Illuminated
May 17
Waxing Crescent
May 17
First Quarter
May 24
Full
May 31
Last Quarter
Jun 8
New

Hourly Weather History & Observations

Time (PDT) Temp. Windchill Dew Point Humidity Pressure Visibility Wind Dir Wind Speed Gust Speed Precip Events Conditions
12:10 AM 46.4 °F 43.5 °F 39.2 °F 76% 30.01 in 10.0 mi West 5.8 mph - N/A   Clear
12:30 AM 44.6 °F 43.1 °F 39.2 °F 81% 30.01 in 10.0 mi West 3.5 mph - N/A   Clear
12:50 AM 44.6 °F 41.4 °F 39.2 °F 81% 30.02 in 10.0 mi West 5.8 mph - N/A   Clear
1:10 AM 44.6 °F 41.4 °F 39.2 °F 81% 30.02 in 10.0 mi West 5.8 mph - N/A   Clear
1:30 AM 44.6 °F 42.2 °F 39.2 °F 81% 30.02 in 10.0 mi West 4.6 mph - N/A   Clear
1:50 AM 44.6 °F 42.2 °F 39.2 °F 81% 30.02 in 10.0 mi West 4.6 mph - N/A   Scattered Clouds
2:10 AM 44.6 °F 41.4 °F 39.2 °F 81% 30.02 in 10.0 mi West 5.8 mph - N/A   Mostly Cloudy
2:30 AM 42.8 °F 40.1 °F 39.2 °F 87% 30.02 in 10.0 mi WNW 4.6 mph - N/A   Partly Cloudy
2:50 AM 42.8 °F 40.1 °F 37.4 °F 81% 30.02 in 10.0 mi West 4.6 mph - N/A   Clear
3:10 AM 41.0 °F 37.1 °F 37.4 °F 87% 30.02 in 10.0 mi West 5.8 mph - N/A   Scattered Clouds
3:30 AM 42.8 °F 40.1 °F 37.4 °F 81% 30.02 in 10.0 mi West 4.6 mph - N/A   Overcast
3:50 AM 41.0 °F 37.1 °F 37.4 °F 87% 30.02 in 10.0 mi West 5.8 mph - N/A   Scattered Clouds
4:10 AM 41.0 °F 38.0 °F 37.4 °F 87% 30.02 in 10.0 mi West 4.6 mph - N/A   Clear
4:30 AM 41.0 °F 37.1 °F 37.4 °F 87% 30.03 in 10.0 mi West 5.8 mph - N/A   Clear
4:50 AM 41.0 °F 36.4 °F 37.4 °F 87% 30.03 in 10.0 mi West 6.9 mph - N/A   Clear
5:10 AM 39.2 °F 35.9 °F 37.4 °F 93% 30.03 in 10.0 mi West 4.6 mph - N/A   Mostly Cloudy
5:30 AM 39.2 °F 35.0 °F 37.4 °F 93% 30.03 in 10.0 mi West 5.8 mph - N/A   Mostly Cloudy
5:50 AM 39.2 °F 35.0 °F 37.4 °F 93% 30.04 in 10.0 mi West 5.8 mph - N/A   Mostly Cloudy
6:10 AM 39.2 °F 35.9 °F 37.4 °F 93% 30.05 in 10.0 mi West 4.6 mph - N/A   Overcast
6:30 AM 41.0 °F 37.1 °F 37.4 °F 87% 30.05 in 10.0 mi West 5.8 mph - N/A   Overcast
6:50 AM 41.0 °F 37.1 °F 37.4 °F 87% 30.05 in 10.0 mi West 5.8 mph - N/A   Overcast
7:10 AM 41.0 °F 38.0 °F 37.4 °F 87% 30.06 in 10.0 mi West 4.6 mph - N/A   Overcast
7:30 AM 44.6 °F 42.2 °F 39.2 °F 81% 30.06 in 10.0 mi West 4.6 mph - N/A   Overcast
7:50 AM 46.4 °F - 39.2 °F 76% 30.05 in 10.0 mi Calm Calm - N/A   Mostly Cloudy
8:10 AM 48.2 °F - 41.0 °F 76% 30.05 in 10.0 mi Calm Calm - N/A   Mostly Cloudy
8:30 AM 48.2 °F - 41.0 °F 76% 30.05 in 10.0 mi ESE 3.5 mph - N/A   Mostly Cloudy
8:50 AM 50.0 °F - 41.0 °F 71% 30.05 in 10.0 mi ESE 4.6 mph - N/A   Overcast
9:10 AM 50.0 °F - 41.0 °F 71% 30.05 in 10.0 mi SE 3.5 mph - N/A   Scattered Clouds
9:30 AM 50.0 °F - 41.0 °F 71% 30.05 in 10.0 mi ENE 3.5 mph - N/A   Clear
9:50 AM 51.8 °F - 41.0 °F 67% 30.05 in 10.0 mi East 4.6 mph - N/A   Clear
10:10 AM 53.6 °F - 41.0 °F 62% 30.04 in 10.0 mi East 3.5 mph - N/A   Clear
10:30 AM 55.4 °F - 41.0 °F 58% 30.04 in 10.0 mi Calm Calm - N/A   Clear
10:50 AM 57.2 °F - 41.0 °F 55% 30.03 in 10.0 mi SE 3.5 mph - N/A   Clear
11:10 AM 59.0 °F - 39.2 °F 48% 30.03 in 10.0 mi SE 5.8 mph - N/A   Clear
11:30 AM 60.8 °F - 37.4 °F 42% 30.03 in 10.0 mi SSE 8.1 mph - N/A   Clear
11:50 AM 62.6 °F - 37.4 °F 39% 30.03 in 10.0 mi SSE 8.1 mph - N/A   Clear
12:10 PM 62.6 °F - 37.4 °F 39% 30.03 in 10.0 mi SSE 11.5 mph - N/A   Clear
12:30 PM 64.4 °F - 35.6 °F 34% 30.02 in 10.0 mi SSE 11.5 mph 16.1 mph N/A   Clear
12:50 PM 64.4 °F - 33.8 °F 32% 30.02 in 10.0 mi SSE 11.5 mph - N/A   Clear
1:10 PM 64.4 °F - 35.6 °F 34% 30.01 in 10.0 mi SSE 9.2 mph - N/A   Clear
1:30 PM 66.2 °F - 35.6 °F 32% 30.01 in 10.0 mi SE 8.1 mph - N/A   Clear
1:50 PM 66.2 °F - 37.4 °F 35% 30.01 in 10.0 mi SSE 12.7 mph - N/A   Clear
2:10 PM 66.2 °F - 35.6 °F 32% 30.01 in 10.0 mi SSE 10.4 mph - N/A   Partly Cloudy
2:30 PM 68.0 °F - 35.6 °F 30% 30.00 in 10.0 mi SSE 8.1 mph - N/A   Clear
2:50 PM 68.0 °F - 35.6 °F 30% 30.00 in 10.0 mi SSE 9.2 mph - N/A   Clear
3:10 PM 68.0 °F - 35.6 °F 30% 30.00 in 10.0 mi SSE 10.4 mph - N/A   Clear
3:30 PM 68.0 °F - 33.8 °F 28% 29.99 in 10.0 mi SSE 10.4 mph 16.1 mph N/A   Clear
3:50 PM 68.0 °F - 32.0 °F 26% 29.99 in 10.0 mi South 9.2 mph - N/A   Clear
4:10 PM 69.8 °F - 32.0 °F 25% 29.98 in 10.0 mi SSE 10.4 mph - N/A   Clear
4:30 PM 71.6 °F - 32.0 °F 23% 29.98 in 10.0 mi South 10.4 mph 17.3 mph N/A   Clear
4:50 PM 69.8 °F - 32.0 °F 25% 29.98 in 10.0 mi South 12.7 mph 16.1 mph N/A   Clear
5:10 PM 69.8 °F - 32.0 °F 25% 29.98 in 10.0 mi South 8.1 mph - N/A   Clear
5:30 PM 69.8 °F - 32.0 °F 25% 29.98 in 10.0 mi South 10.4 mph 16.1 mph N/A   Clear
5:50 PM 68.0 °F - 32.0 °F 26% 29.99 in 10.0 mi South 8.1 mph 17.3 mph N/A   Clear
6:10 PM 68.0 °F - 32.0 °F 26% 29.99 in 10.0 mi South 11.5 mph 17.3 mph N/A   Clear
6:30 PM 68.0 °F - 32.0 °F 26% 29.99 in 10.0 mi South 11.5 mph 16.1 mph N/A   Clear
6:50 PM 66.2 °F - 32.0 °F 28% 30.00 in 10.0 mi South 8.1 mph - N/A   Clear
7:10 PM 66.2 °F - 32.0 °F 28% 30.00 in 10.0 mi South 10.4 mph - N/A   Clear
7:30 PM 64.4 °F - 32.0 °F 30% 30.01 in 10.0 mi South 10.4 mph - N/A   Clear
7:50 PM 64.4 °F - 30.2 °F 28% 30.02 in 10.0 mi SSW 5.8 mph - N/A   Clear
8:10 PM 62.6 °F - 28.4 °F 27% 30.03 in 10.0 mi SSW 6.9 mph - N/A   Clear
8:30 PM 62.6 °F - 26.6 °F 26% 30.04 in 10.0 mi South 6.9 mph - N/A   Clear
8:50 PM 57.2 °F - 32.0 °F 38% 30.06 in 10.0 mi WNW 3.5 mph - N/A   Clear
9:10 PM 55.4 °F - 37.4 °F 51% 30.07 in 10.0 mi Calm Calm - N/A   Clear
9:30 PM 55.4 °F - 37.4 °F 51% 30.08 in 10.0 mi West 3.5 mph - N/A   Clear
9:50 PM 53.6 °F - 37.4 °F 54% 30.09 in 10.0 mi WNW 6.9 mph - N/A   Clear
10:10 PM 51.8 °F - 35.6 °F 54% 30.10 in 10.0 mi WNW 8.1 mph - N/A   Clear
10:30 PM 50.0 °F - 37.4 °F 62% 30.11 in 10.0 mi WNW 6.9 mph - N/A   Clear
10:50 PM 50.0 °F - 37.4 °F 62% 30.11 in 10.0 mi West 5.8 mph - N/A   Clear
11:10 PM 48.2 °F - 37.4 °F 66% 30.12 in 10.0 mi West 4.6 mph - N/A   Clear
11:30 PM 48.2 °F - 37.4 °F 66% 30.12 in 10.0 mi West 5.8 mph - N/A   Clear
11:50 PM 48.2 °F - 35.6 °F 62% 30.12 in 10.0 mi West 5.8 mph - N/A   Clear